User: anonymous   Login
Location: Deep South Regional Star Gaze
(30.9929°N, 90.9586°W)
Time: 16:29:00
(UTC-06:00)
Language:

MSX - Orbit

View from above orbital plane
View from above orbital plane
View from above satellite
View from above satellite

Ground track
Ground track

The orbit data is extracted from the following two-line orbital elements,

1 23851U 96024A   18053.16686992 0.00000100  00000-0  70439-4 0    05
2 23851  98.6798  50.2606 0007004  17.1673 342.8326 13.98063849    02
Epoch (UTC): 22 February 2018 04:00:17
Eccentricity: 0.0007004
inclination: 98.6798°
perigee height: 895 km
apogee height: 905 km
right ascension of ascending node: 50.2606°
argument of perigee: 17.1673°
revolutions per day: 13.98063849
mean anomaly at epoch: 342.8326°
orbit number at epoch: 0

The dashed part of the orbit path shows where the satellite is in the earth's shadow,  

DLR